Unsubscribe Automatically:

[TLELIST] 0 HST 1 20580U 90037B 26257.17378261 .00005382 00000-0 16369-3 0 9997 2 20580 28.4732 191.9585 0001881 59.3129 300.7652 15.31641591802221 0 ISS (ZARYA) 1 25544U 98067A 26257.14321681 .00004666 00000-0 92466-4 0 9991 2 25544 51.6309 219.8284 0004931 139.3822 220.7535 15.49107075585545 0 CXO 1 25867U 99040B 26259.29000158 .00000789 00000-0 00000-0 0 9993 2 25867 57.4112 114.2820 7693036 309.4077 0.3912 0.37803042 17664